| time (UTC) | temp C | wind direction | speed KPH | gust KPH | rain 1hr cm | rain 24hr cm | rain mn cm | humidity % | barometer mb |
| 20260502214823 | 33 | 307 | 1.6 | 9.7 | 0.00 | 0.00 | 0.00 | 52 | 1011.0 |
| 20260502214329 | 33 | 345 | 1.6 | 8.0 | 0.00 | 0.00 | 0.00 | 53 | 1011.0 |
| 20260502213845 | 33 | 157 | 1.6 | 8.0 | 0.00 | 0.00 | 0.00 | 52 | 1011.0 |
| 20260502213319 | 33 | 20 | 0.0 | 6.4 | 0.00 | 0.00 | 0.00 | 51 | 1011.0 |
| 20260502212842 | 33 | 278 | 3.2 | 6.4 | 0.00 | 0.00 | 0.00 | 51 | 1010.9 |
| 20260502212328 | 33 | 104 | 0.0 | 6.4 | 0.00 | 0.00 | 0.00 | 52 | 1011.0 |
| 20260502211828 | 33 | 117 | 1.6 | 6.4 | 0.00 | 0.00 | 0.00 | 51 | 1011.0 |
| 20260502211322 | 33 | 285 | 3.2 | 8.0 | 0.00 | 0.00 | 0.00 | 52 | 1010.9 |
| 20260502210824 | 33 | 240 | 1.6 | 11.3 | 0.00 | 0.00 | 0.00 | 52 | 1010.9 |
| 20260502210326 | 33 | 274 | 3.2 | 11.3 | 0.00 | 0.00 | 0.00 | 52 | 1010.8 |
| 20260502205820 | 33 | 286 | 3.2 | 6.4 | 0.00 | 0.00 | 0.00 | 51 | 1010.8 |
| 20260502205333 | 33 | 10 | 1.6 | 11.3 | 0.00 | 0.00 | 0.00 | 50 | 1010.8 |
| 20260502204822 | 33 | 356 | 4.8 | 11.3 | 0.00 | 0.00 | 0.00 | 51 | 1010.9 |
| 20260502204323 | 34 | 307 | 1.6 | 8.0 | 0.00 | 0.00 | 0.00 | 54 | 1010.8 |
| 20260502203846 | 33 | 110 | 1.6 | 9.7 | 0.00 | 0.00 | 0.00 | 53 | 1010.8 |
| 20260502203337 | 33 | 11 | 3.2 | 11.3 | 0.00 | 0.00 | 0.00 | 51 | 1010.9 |
| 20260502202829 | 34 | 76 | 3.2 | 11.3 | 0.00 | 0.00 | 0.00 | 51 | 1010.9 |
| 20260502202336 | 34 | 337 | 1.6 | 12.9 | 0.00 | 0.00 | 0.00 | 52 | 1011.0 |
| 20260502201845 | 34 | 281 | 3.2 | 12.9 | 0.00 | 0.00 | 0.00 | 52 | 1010.9 |
| 20260502201331 | 34 | 146 | 3.2 | 12.9 | 0.00 | 0.00 | 0.00 | 54 | 1011.0 |
| 20260502200843 | 34 | 302 | 4.8 | 12.9 | 0.00 | 0.00 | 0.00 | 52 | 1010.9 |
| 20260502200331 | 34 | 311 | 3.2 | 14.5 | 0.00 | 0.00 | 0.00 | 54 | 1011.0 |
| 20260502195826 | 34 | 346 | 3.2 | 14.5 | 0.00 | 0.00 | 0.00 | 53 | 1011.0 |
| 20260502195346 | 35 | 122 | 4.8 | 14.5 | 0.00 | 0.00 | 0.00 | 53 | 1011.1 |
| 20260502194820 | 34 | 29 | 1.6 | 12.9 | 0.00 | 0.00 | 0.00 | 55 | 1011.2 |
| 20260502194334 | 34 | 130 | 3.2 | 12.9 | 0.00 | 0.00 | 0.00 | 55 | 1011.1 |
| 20260502193819 | 34 | 297 | 4.8 | 9.7 | 0.00 | 0.00 | 0.00 | 54 | 1011.3 |
| 20260502193330 | 35 | 351 | 1.6 | 9.7 | 0.00 | 0.00 | 0.00 | 53 | 1011.3 |
| 20260502192824 | 35 | 32 | 1.6 | 16.1 | 0.00 | 0.00 | 0.00 | 56 | 1011.4 |
| 20260502192338 | 35 | 56 | 3.2 | 16.1 | 0.00 | 0.00 | 0.00 | 56 | 1011.3 |
| 20260502191842 | 35 | 312 | 3.2 | 11.3 | 0.00 | 0.00 | 0.00 | 55 | 1011.3 |
| 20260502191325 | 35 | 300 | 3.2 | 9.7 | 0.00 | 0.00 | 0.00 | 53 | 1011.3 |
| 20260502190833 | 35 | 252 | 1.6 | 11.3 | 0.00 | 0.00 | 0.00 | 55 | 1011.3 |
| 20260502190326 | 35 | 285 | 3.2 | 11.3 | 0.00 | 0.00 | 0.00 | 56 | 1011.3 |
| 20260502185820 | 35 | 290 | 1.6 | 6.4 | 0.00 | 0.00 | 0.00 | 56 | 1011.3 |
| 20260502185407 | 35 | 344 | 0.0 | 9.7 | 0.00 | 0.00 | 0.00 | 57 | 1011.3 |
| 20260502184834 | 35 | 310 | 3.2 | 12.9 | 0.00 | 0.00 | 0.00 | 56 | 1011.4 |
| 20260502184326 | 34 | 93 | 1.6 | 12.9 | 0.00 | 0.00 | 0.00 | 57 | 1011.2 |
| 20260502183825 | 34 | 19 | 4.8 | 17.7 | 0.00 | 0.00 | 0.00 | 55 | 1011.4 |
| 20260502183326 | 34 | 306 | 4.8 | 17.7 | 0.00 | 0.00 | 0.00 | 57 | 1011.4 |
| 20260502182846 | 33 | 139 | 3.2 | 11.3 | 0.00 | 0.00 | 0.00 | 59 | 1011.4 |
| 20260502182338 | 33 | 23 | 3.2 | 9.7 | 0.00 | 0.00 | 0.00 | 61 | 1011.6 |
| 20260502181835 | 33 | 329 | 4.8 | 9.7 | 0.00 | 0.00 | 0.00 | 58 | 1011.6 |
| 20260502181329 | 33 | 331 | 1.6 | 6.4 | 0.00 | 0.00 | 0.00 | 61 | 1011.6 |
| 20260502180841 | 34 | 299 | 1.6 | 11.3 | 0.00 | 0.00 | 0.00 | 60 | 1011.7 |
| 20260502180332 | 34 | 250 | 3.2 | 11.3 | 0.00 | 0.00 | 0.00 | 60 | 1011.7 |
| 20260502170353 | 34 | 116 | 3.2 | 12.9 | 0.00 | 0.00 | 0.00 | 64 | 1012.1 |
| 20260502164334 | 33 | 250 | 6.4 | 19.3 | 0.00 | 0.00 | 0.00 | 65 | 1012.1 |
| 20260502163819 | 33 | 108 | 6.4 | 19.3 | 0.00 | 0.00 | 0.00 | 65 | 1012.3 |
| 20260502163327 | 33 | 174 | 4.8 | 14.5 | 0.00 | 0.00 | 0.00 | 66 | 1012.2 |
| 20260502162819 | 33 | 18 | 3.2 | 14.5 | 0.00 | 0.00 | 0.00 | 66 | 1012.3 |
| 20260502162331 | 33 | 141 | 3.2 | 14.5 | 0.00 | 0.00 | 0.00 | 66 | 1012.6 |
| 20260502161900 | 33 | 312 | 3.2 | 14.5 | 0.00 | 0.00 | 0.00 | 65 | 1012.6 |
| 20260502161347 | 33 | 167 | 8.0 | 14.5 | 0.00 | 0.00 | 0.00 | 65 | 1012.5 |
| 20260502160829 | 33 | 5 | 3.2 | 12.9 | 0.00 | 0.00 | 0.00 | 64 | 1012.6 |
| 20260502160340 | 33 | 155 | 4.8 | 12.9 | 0.00 | 0.00 | 0.00 | 66 | 1012.5 |
| 20260502152332 | 32 | 114 | 4.8 | 16.1 | 0.00 | 0.00 | 0.00 | 66 | 1012.8 |
| 20260502151822 | 32 | 117 | 4.8 | 16.1 | 0.00 | 0.00 | 0.00 | 67 | 1012.8 |
| 20260502151332 | 32 | 139 | 3.2 | 8.0 | 0.00 | 0.00 | 0.00 | 68 | 1013.0 |
| 20260502150824 | 32 | 154 | 3.2 | 9.7 | 0.00 | 0.00 | 0.00 | 69 | 1012.9 |
| 20260502150331 | 32 | 306 | 3.2 | 9.7 | 0.00 | 0.00 | 0.00 | 70 | 1012.8 |
| 20260502130331 | 28 | 140 | 4.8 | 12.9 | 0.00 | 0.00 | 0.00 | 80 | 1012.5 |
| 20260502123323 | 26 | 165 | 3.2 | 6.4 | 0.00 | 0.00 | 0.00 | 82 | 1012.6 |
| 20260502122909 | 26 | 110 | 1.6 | 6.4 | 0.00 | 0.00 | 0.00 | 82 | 1012.6 |
| 20260502122332 | 26 | 115 | 1.6 | 6.4 | 0.00 | 0.00 | 0.00 | 82 | 1012.6 |
| 20260502121834 | 26 | 146 | 1.6 | 4.8 | 0.00 | 0.00 | 0.00 | 82 | 1012.6 |
| 20260502121323 | 26 | 156 | 1.6 | 4.8 | 0.00 | 0.00 | 0.00 | 83 | 1012.5 |
| 20260502120826 | 26 | 197 | 1.6 | 4.8 | 0.00 | 0.00 | 0.00 | 83 | 1012.6 |
| 20260502120346 | 25 | 127 | 1.6 | 4.8 | 0.00 | 0.00 | 0.00 | 84 | 1012.6 |
| 20260502115827 | 25 | 126 | 1.6 | 3.2 | 0.00 | 0.00 | 0.00 | 85 | 1012.6 |
| 20260502115339 | 25 | 162 | 0.0 | 3.2 | 0.00 | 0.00 | 0.00 | 85 | 1012.6 |
| 20260502114829 | 24 | 172 | 0.0 | 0.0 | 0.00 | 0.00 | 0.00 | 86 | 1012.7 |
| 20260502114323 | 24 | 152 | 0.0 | 0.0 | 0.00 | 0.00 | 0.00 | 86 | 1012.8 |
| 20260502113836 | 23 | 168 | 0.0 | 0.0 | 0.00 | 0.00 | 0.00 | 86 | 1012.7 |
| 20260502113330 | 23 | 168 | 0.0 | 0.0 | 0.00 | 0.00 | 0.00 | 86 | 1012.8 |
| 20260502112824 | 23 | 168 | 0.0 | 1.6 | 0.00 | 0.00 | 0.00 | 87 | 1012.7 |
| 20260502112335 | 23 | 165 | 0.0 | 1.6 | 0.00 | 0.00 | 0.00 | 87 | 1012.7 |
| 20260502111825 | 23 | 134 | 0.0 | 1.6 | 0.00 | 0.00 | 0.00 | 87 | 1012.8 |
| 20260502111347 | 23 | 131 | 0.0 | 1.6 | 0.00 | 0.00 | 0.00 | 88 | 1012.9 |
| 20260502110838 | 23 | 161 | 0.0 | 3.2 | 0.00 | 0.00 | 0.00 | 88 | 1012.7 |
| 20260502110333 | 23 | 148 | 1.6 | 3.2 | 0.00 | 0.00 | 0.00 | 88 | 1012.7 |
| 20260502105827 | 23 | 131 | 0.0 | 1.6 | 0.00 | 0.00 | 0.00 | 88 | 1012.7 |
| 20260502105336 | 23 | 131 | 0.0 | 0.0 | 0.00 | 0.00 | 0.00 | 88 | 1012.7 |
| 20260502104847 | 22 | 131 | 0.0 | 0.0 | 0.00 | 0.00 | 0.00 | 88 | 1012.7 |
| 20260502104349 | 22 | 131 | 0.0 | 1.6 | 0.00 | 0.00 | 0.00 | 88 | 1012.7 |
| 20260502103822 | 22 | 131 | 0.0 | 1.6 | 0.00 | 0.00 | 0.00 | 88 | 1012.7 |
| 20260502103322 | 22 | 129 | 0.0 | 1.6 | 0.00 | 0.00 | 0.00 | 88 | 1012.5 |
| 20260502102832 | 22 | 169 | 0.0 | 1.6 | 0.00 | 0.00 | 0.00 | 88 | 1012.5 |
| 20260502102326 | 22 | 167 | 0.0 | 0.0 | 0.00 | 0.00 | 0.00 | 88 | 1012.5 |
| 20260502101837 | 22 | 162 | 0.0 | 1.6 | 0.00 | 0.00 | 0.00 | 87 | 1012.5 |
| 20260502101404 | 22 | 152 | 0.0 | 0.0 | 0.00 | 0.00 | 0.00 | 87 | 1012.5 |
| 20260502100836 | 22 | 134 | 0.0 | 0.0 | 0.00 | 0.00 | 0.00 | 87 | 1012.5 |
| 20260502100336 | 22 | 134 | 0.0 | 0.0 | 0.00 | 0.00 | 0.00 | 87 | 1012.6 |
| 20260502091336 | 22 | 352 | 0.0 | 0.0 | 0.00 | 0.00 | 0.00 | 87 | 1012.6 |
| 20260502090830 | 22 | 352 | 0.0 | 0.0 | 0.00 | 0.00 | 0.00 | 87 | 1012.6 |
| 20260502090323 | 22 | 352 | 0.0 | 0.0 | 0.00 | 0.00 | 0.00 | 87 | 1012.5 |
| 20260502071341 | 22 | 225 | 0.0 | 0.0 | 0.00 | 0.00 | 0.00 | 86 | 1012.6 |
| 20260502070830 | 22 | 225 | 0.0 | 0.0 | 0.00 | 0.00 | 0.00 | 85 | 1012.7 |
| 20260502070323 | 22 | 225 | 0.0 | 1.6 | 0.00 | 0.00 | 0.00 | 86 | 1012.7 |
| 20260502065824 | 22 | 225 | 0.0 | 1.6 | 0.00 | 0.00 | 0.00 | 86 | 1012.7 |
| 20260502065335 | 22 | 283 | 0.0 | 0.0 | 0.00 | 0.00 | 0.00 | 85 | 1012.7 |
| 20260502064851 | 22 | 283 | 0.0 | 0.0 | 0.00 | 0.00 | 0.00 | 85 | 1012.8 |
| 20260502064321 | 22 | 283 | 0.0 | 0.0 | 0.00 | 0.00 | 0.00 | 85 | 1012.9 |
| 20260502063831 | 22 | 283 | 0.0 | 0.0 | 0.00 | 0.00 | 0.00 | 85 | 1012.9 |
| 20260502063345 | 22 | 283 | 0.0 | 0.0 | 0.00 | 0.00 | 0.00 | 85 | 1012.8 |
| 20260502062838 | 22 | 283 | 0.0 | 0.0 | 0.00 | 0.00 | 0.00 | 85 | 1012.7 |
| 20260502062403 | 22 | 283 | 0.0 | 0.0 | 0.00 | 0.00 | 0.00 | 85 | 1012.7 |
| 20260502061824 | 22 | 283 | 0.0 | 0.0 | 0.00 | 0.00 | 0.00 | 85 | 1012.8 |
| 20260502061330 | 23 | 283 | 0.0 | 0.0 | 0.00 | 0.00 | 0.00 | 84 | 1012.9 |
| 20260502060821 | 23 | 283 | 0.0 | 0.0 | 0.00 | 0.00 | 0.00 | 84 | 1013.0 |
| 20260502060332 | 23 | 283 | 0.0 | 0.0 | 0.00 | 0.00 | 0.00 | 84 | 1013.1 |
| 20260502055845 | 23 | 283 | 0.0 | 0.0 | 0.00 | 0.00 | 0.00 | 83 | 1013.0 |
| 20260502055321 | 23 | 283 | 0.0 | 0.0 | 0.00 | 0.00 | 0.00 | 83 | 1013.0 |
| 20260502054849 | 23 | 283 | 0.0 | 0.0 | 0.00 | 0.00 | 0.00 | 83 | 1013.0 |
| 20260502054339 | 23 | 283 | 0.0 | 0.0 | 0.00 | 0.00 | 0.00 | 82 | 1013.1 |
| 20260502053831 | 23 | 283 | 0.0 | 0.0 | 0.00 | 0.00 | 0.00 | 82 | 1013.1 |
| 20260502053343 | 23 | 283 | 0.0 | 0.0 | 0.00 | 0.00 | 0.00 | 82 | 1013.2 |
| 20260502052830 | 23 | 283 | 0.0 | 1.6 | 0.00 | 0.00 | 0.00 | 82 | 1013.2 |
| 20260502052330 | 23 | 128 | 0.0 | 1.6 | 0.00 | 0.00 | 0.00 | 81 | 1013.3 |
| 20260502051821 | 24 | 120 | 0.0 | 1.6 | 0.00 | 0.00 | 0.00 | 81 | 1013.1 |
| 20260502051343 | 24 | 120 | 0.0 | 0.0 | 0.00 | 0.00 | 0.00 | 81 | 1013.2 |
| 20260502050825 | 24 | 117 | 0.0 | 1.6 | 0.00 | 0.00 | 0.00 | 81 | 1013.1 |
| 20260502050335 | 24 | 146 | 0.0 | 1.6 | 0.00 | 0.00 | 0.00 | 81 | 1013.1 |
| 20260502045828 | 24 | 146 | 0.0 | 1.6 | 0.00 | 0.00 | 0.00 | 80 | 1013.1 |
| 20260502045321 | 25 | 151 | 0.0 | 4.8 | 0.00 | 0.00 | 0.00 | 80 | 1013.1 |
| 20260502044830 | 25 | 146 | 0.0 | 4.8 | 0.00 | 0.00 | 0.00 | 80 | 1013.2 |
| 20260502044321 | 25 | 136 | 1.6 | 4.8 | 0.00 | 0.00 | 0.00 | 80 | 1013.1 |
| 20260502043858 | 25 | 135 | 0.0 | 6.4 | 0.00 | 0.00 | 0.00 | 80 | 1013.1 |
| 20260502043327 | 25 | 165 | 0.0 | 6.4 | 0.00 | 0.00 | 0.00 | 80 | 1013.2 |
| 20260502042820 | 25 | 150 | 1.6 | 6.4 | 0.00 | 0.00 | 0.00 | 80 | 1013.2 |
| 20260502042342 | 25 | 121 | 1.6 | 6.4 | 0.00 | 0.00 | 0.00 | 80 | 1013.2 |
| 20260502041837 | 25 | 144 | 0.0 | 8.0 | 0.00 | 0.00 | 0.00 | 80 | 1013.1 |
| 20260502041336 | 25 | 272 | 0.0 | 6.4 | 0.00 | 0.00 | 0.00 | 81 | 1013.2 |
| 20260502040826 | 25 | 154 | 1.6 | 6.4 | 0.00 | 0.00 | 0.00 | 82 | 1013.1 |
| 20260502040348 | 25 | 146 | 1.6 | 9.7 | 0.00 | 0.00 | 0.00 | 82 | 1013.1 |
| 20260502035833 | 26 | 172 | 3.2 | 9.7 | 0.00 | 0.00 | 0.00 | 82 | 1013.0 |
| 20260502035345 | 26 | 184 | 3.2 | 6.4 | 0.00 | 0.00 | 0.00 | 81 | 1013.2 |
| 20260502034854 | 26 | 159 | 1.6 | 8.0 | 0.00 | 0.00 | 0.00 | 81 | 1013.2 |
| 20260502034326 | 26 | 155 | 3.2 | 11.3 | 0.00 | 0.00 | 0.00 | 81 | 1013.2 |
| 20260502033839 | 26 | 162 | 3.2 | 11.3 | 0.00 | 0.00 | 0.00 | 81 | 1013.2 |
| 20260502033406 | 26 | 165 | 3.2 | 9.7 | 0.00 | 0.00 | 0.00 | 81 | 1013.2 |
| 20260502032839 | 26 | 154 | 0.0 | 9.7 | 0.00 | 0.00 | 0.00 | 80 | 1013.1 |
| 20260502032329 | 26 | 176 | 3.2 | 8.0 | 0.00 | 0.00 | 0.00 | 80 | 1013.1 |
| 20260502031907 | 26 | 145 | 4.8 | 8.0 | 0.00 | 0.00 | 0.00 | 80 | 1013.1 |
| 20260502031343 | 26 | 177 | 1.6 | 8.0 | 0.00 | 0.00 | 0.00 | 80 | 1013.0 |
| 20260502030835 | 26 | 153 | 3.2 | 8.0 | 0.00 | 0.00 | 0.00 | 80 | 1013.0 |
| 20260502030334 | 26 | 165 | 3.2 | 9.7 | 0.00 | 0.00 | 0.00 | 79 | 1013.0 |
| 20260502025829 | 26 | 143 | 3.2 | 9.7 | 0.00 | 0.00 | 0.00 | 79 | 1013.0 |
| 20260502025321 | 26 | 156 | 3.2 | 9.7 | 0.00 | 0.00 | 0.00 | 79 | 1013.0 |
| 20260502024836 | 26 | 161 | 3.2 | 6.4 | 0.00 | 0.00 | 0.00 | 79 | 1013.0 |
| 20260502024329 | 26 | 132 | 3.2 | 11.3 | 0.00 | 0.00 | 0.00 | 78 | 1013.0 |
| 20260502023822 | 26 | 130 | 1.6 | 11.3 | 0.00 | 0.00 | 0.00 | 78 | 1013.0 |
| 20260502023332 | 26 | 131 | 1.6 | 9.7 | 0.00 | 0.00 | 0.00 | 78 | 1012.9 |
| 20260502022846 | 26 | 128 | 3.2 | 9.7 | 0.00 | 0.00 | 0.00 | 78 | 1012.9 |
| 20260502022347 | 26 | 116 | 3.2 | 11.3 | 0.00 | 0.00 | 0.00 | 78 | 1012.9 |
| 20260502021830 | 26 | 143 | 3.2 | 11.3 | 0.00 | 0.00 | 0.00 | 78 | 1012.7 |
| 20260502021324 | 26 | 148 | 4.8 | 9.7 | 0.00 | 0.00 | 0.00 | 78 | 1012.7 |
| 20260502020835 | 26 | 124 | 3.2 | 9.7 | 0.00 | 0.00 | 0.00 | 78 | 1012.6 |
| 20260502020330 | 26 | 162 | 3.2 | 9.7 | 0.00 | 0.00 | 0.00 | 78 | 1012.5 |
| 20260502015906 | 26 | 152 | 4.8 | 9.7 | 0.00 | 0.00 | 0.00 | 78 | 1012.6 |
| 20260502015331 | 26 | 111 | 3.2 | 8.0 | 0.00 | 0.00 | 0.00 | 78 | 1012.6 |
| 20260502014826 | 26 | 152 | 3.2 | 9.7 | 0.00 | 0.00 | 0.00 | 78 | 1012.5 |
| 20260502014320 | 26 | 131 | 1.6 | 11.3 | 0.00 | 0.00 | 0.00 | 78 | 1012.5 |
| 20260502013827 | 26 | 150 | 4.8 | 11.3 | 0.00 | 0.00 | 0.00 | 78 | 1012.5 |
| 20260502013349 | 26 | 198 | 4.8 | 12.9 | 0.00 | 0.00 | 0.00 | 78 | 1012.5 |
| 20260502012838 | 26 | 140 | 4.8 | 12.9 | 0.00 | 0.00 | 0.00 | 78 | 1012.5 |
| 20260502012332 | 26 | 115 | 4.8 | 12.9 | 0.00 | 0.00 | 0.00 | 78 | 1012.4 |
| 20260502011833 | 26 | 124 | 4.8 | 11.3 | 0.00 | 0.00 | 0.00 | 78 | 1012.4 |
| 20260502011328 | 26 | 127 | 4.8 | 11.3 | 0.00 | 0.00 | 0.00 | 78 | 1012.3 |
| 20260502010823 | 26 | 198 | 6.4 | 12.9 | 0.00 | 0.00 | 0.00 | 78 | 1012.2 |
| 20260502010345 | 26 | 188 | 4.8 | 12.9 | 0.00 | 0.00 | 0.00 | 78 | 1012.2 |
| 20260502005819 | 26 | 127 | 4.8 | 11.3 | 0.00 | 0.00 | 0.00 | 78 | 1012.2 |
| 20260502005350 | 26 | 182 | 6.4 | 11.3 | 0.00 | 0.00 | 0.00 | 78 | 1012.2 |
| 20260502004822 | 26 | 123 | 4.8 | 12.9 | 0.00 | 0.00 | 0.00 | 78 | 1012.0 |
| 20260502004346 | 26 | 134 | 6.4 | 14.5 | 0.00 | 0.00 | 0.00 | 78 | 1012.0 |
| 20260502003829 | 27 | 127 | 4.8 | 14.5 | 0.00 | 0.00 | 0.00 | 78 | 1012.0 |
| 20260502003342 | 27 | 179 | 3.2 | 14.5 | 0.00 | 0.00 | 0.00 | 78 | 1011.9 |
| 20260502002832 | 27 | 150 | 6.4 | 17.7 | 0.00 | 0.00 | 0.00 | 78 | 1011.7 |
| 20260502002325 | 27 | 135 | 8.0 | 16.1 | 0.00 | 0.00 | 0.00 | 78 | 1011.8 |
| 20260502001837 | 27 | 139 | 6.4 | 22.5 | 0.00 | 0.00 | 0.00 | 78 | 1011.6 |
| 20260502001349 | 27 | 143 | 9.7 | 22.5 | 0.00 | 0.00 | 0.00 | 77 | 1011.5 |
| 20260502000822 | 27 | 137 | 6.4 | 14.5 | 0.00 | 0.00 | 0.00 | 77 | 1011.6 |
| 20260502000333 | 27 | 158 | 4.8 | 11.3 | 0.00 | 0.00 | 0.00 | 77 | 1011.4 |
| 20260501235823 | 27 | 139 | 4.8 | 16.1 | 0.00 | 0.00 | 0.00 | 77 | 1011.6 |
| 20260501235336 | 27 | 107 | 8.0 | 17.7 | 0.00 | 0.00 | 0.00 | 77 | 1011.3 |
| 20260501234827 | 27 | 154 | 8.0 | 17.7 | 0.00 | 0.00 | 0.00 | 76 | 1011.3 |
| 20260501234322 | 27 | 134 | 9.7 | 16.1 | 0.00 | 0.00 | 0.00 | 77 | 1011.2 |
| 20260501233833 | 27 | 148 | 8.0 | 16.1 | 0.00 | 0.00 | 0.00 | 76 | 1011.2 |
| 20260501233327 | 27 | 60 | 9.7 | 19.3 | 0.00 | 0.00 | 0.00 | 76 | 1011.3 |
| 20260501232819 | 27 | 135 | 9.7 | 19.3 | 0.00 | 0.00 | 0.00 | 75 | 1011.2 |
| 20260501232342 | 27 | 129 | 6.4 | 17.7 | 0.00 | 0.00 | 0.00 | 75 | 1011.2 |
| 20260501231827 | 28 | 140 | 6.4 | 17.7 | 0.00 | 0.00 | 0.00 | 75 | 1011.2 |
| 20260501231320 | 28 | 167 | 8.0 | 19.3 | 0.00 | 0.00 | 0.00 | 74 | 1011.2 |
| 20260501230832 | 28 | 139 | 4.8 | 19.3 | 0.00 | 0.00 | 0.00 | 74 | 1011.1 |
| 20260501230326 | 28 | 152 | 8.0 | 16.1 | 0.00 | 0.00 | 0.00 | 74 | 1011.0 |
| 20260501225822 | 28 | 138 | 8.0 | 16.1 | 0.00 | 0.00 | 0.00 | 73 | 1010.9 |
| 20260501225336 | 28 | 150 | 8.0 | 14.5 | 0.00 | 0.00 | 0.00 | 73 | 1010.9 |
| 20260501224828 | 28 | 145 | 9.7 | 17.7 | 0.00 | 0.00 | 0.00 | 73 | 1010.9 |
| 20260501224320 | 28 | 150 | 9.7 | 19.3 | 0.00 | 0.00 | 0.00 | 72 | 1010.9 |
| 20260501223829 | 28 | 130 | 9.7 | 19.3 | 0.00 | 0.00 | 0.00 | 72 | 1010.9 |
| 20260501223322 | 29 | 155 | 8.0 | 17.7 | 0.00 | 0.00 | 0.00 | 73 | 1010.9 |
| 20260501222845 | 28 | 101 | 9.7 | 17.7 | 0.00 | 0.00 | 0.00 | 73 | 1010.8 |
| 20260501222338 | 29 | 128 | 11.3 | 17.7 | 0.00 | 0.00 | 0.00 | 73 | 1010.9 |
| 20260501221822 | 29 | 124 | 8.0 | 19.3 | 0.00 | 0.00 | 0.00 | 73 | 1010.9 |
| 20260501221332 | 29 | 144 | 11.3 | 19.3 | 0.00 | 0.00 | 0.00 | 73 | 1010.9 |
| 20260501220825 | 29 | 130 | 9.7 | 19.3 | 0.00 | 0.00 | 0.00 | 72 | 1010.9 |
| 20260501220348 | 29 | 127 | 9.7 | 19.3 | 0.00 | 0.00 | 0.00 | 72 | 1010.8 |
| 20260501215324 | 30 | 145 | 8.0 | 17.7 | 0.00 | 0.00 | 0.00 | 72 | 1010.9 |